Location: Drignac
(45.1667°N, 2.0333°E)
Time: 07:49:11
(UTC+00:00)

Terra - Pass Details

Date: 29 March 2020
Orbit: 701 x 703 km, 98.2° (Epoch: 03 June)

Event Time Altitude Azimuth Distance (km) Brightness Sun altitude
Exits shadow 20:48:58 22° 38° (NE) 1,529 3.5 -25.7°
Drops below altitude 10° 20:51:26 10° 10° (N) 2,181 4.6 -26.1°
Sets 20:54:01 0° 358° (N) 3,104 5.7 -26.4°
